OPS 4682 DEB, 18270

Orbit data source: Space-Track

OPS 4682 DEB, 18270 is space debris in LEO originally from a launch on Sat, 03 Apr 1965 UTC launched from the Air Force Western Test Range (AFWTR). Debris objects in space refer to the collection of defunct objects orbiting the Earth. Examples of debris include non-operational satellites, rocket bodies, and fragments generated from explosions, collisions, or faulty payload assembly.

Loading next visibility...
Identifier
18270, 1965-027Z
Orbit
LEO
Country
Flag of USUS
Related business
Manufacturer
Unknown
Mission
Spacecraft
Bus & Motor
Unknown
Mass
Unknown
Launch date (UTC)
1965-04-03 (61 years ago)
Launch vehicle
Unknown
Launch site
Air Force Western Test Range (AFWTR)
Object type
Payload
Rocket body
Debris
Shape & HBR
Unknown shape, 0.1 m
Radar Cross Section
Small (<0.1 m²)

Expand to show TLE details & history
Last TLE update: 20 hours ago

TLE from 20 hours ago
0 OPS 4682 DEB
1 18270U 65027Z   26118.91532292 -.00000153  00000-0 -55568-3 0  9992
2 18270  90.2360 358.5923 0027034 229.8578 141.7148 12.97161702910206
Epoch: 2026-04-28T21:58Z
TLE epoch observation values (Epoch: 2026-04-28T21:58:03.900Z)
Latitude
11.7199°
Longitude
172.14355°
Altitude
1,291.615 km
Speed
7.204 km/s
True Right ascension
23h 54m 10s
True Declination
11° 39' 23"
Sunlit
Object was in daylight at epoch
Visualization orbit readout
Latitude
Unknown
Longitude
Unknown
Altitude
Unknown
Speed
Unknown
Apparent Right ascension
Unknown
Apparent Declination
Unknown
Sunlit
N/A
Visualization observer readout
Local Sidereal Time
01:45:14
Azimuth
Unknown
Elevation
Unknown
Doppler factor
Unknown
Orbital elements
Apogee altitude
1,291.036 km
Perigee altitude
1,249.682 km
Semi-major axis
7,648.496 km
Eccentricity
0.0027
Inclination
90.236°
RAAN
358.5923°
Arg. of periapsis
229.8578°
True anomaly
141.90623°
Mean anomaly
141.7148°
Eccentric anomaly
141.81056°
Mean motion
3.24473 °/min
Orbital period
110.95 mins
BSTAR
-0.00055568
Loading maneuver chart data...
Computing Atmospheric mass density...
Loading historical data...
Loading historical data...
Loading historical data...
Loading historical data...
Loading historical data...
Loading historical data...
Loading historical data...

Documentation

Showing up to 5 results
|